Location: Vista Encantada
(35.1109°N, 106.5681°W)
Time: 09:07:45
(UTC+00:00)

Cosmos 1655 Rocket - Pass Details

Date: 29 October 2020
Orbit: 971 x 1006 km, 83.0° (Epoch: 04 December)

Event Time Altitude Azimuth Distance (km) Brightness Sun altitude
Rises 12:27:09 0° 178° (S) 3,665 7.1 -12.4°
Reaches altitude 10° 12:29:39 10° 176° (S) 2,725 6.5 -11.9°
Maximum altitude 12:35:51 71° 94° (E) 1,042 4.4 -10.7°
Drops below altitude 10° 12:42:10 10° 11° (N) 2,765 6.4 -9.4°
Sets 12:44:43 0° 9° (N) 3,723 7.0 -8.9°
